| time (UTC) | temp C | wind direction | speed KPH | gust KPH | rain 1hr cm | rain 24hr cm | rain mn cm | humidity % | barometer mb |
| 20260508133122 | 15 | 196 | 6.4 | 14.5 | 0.00 | 0.08 | 0.00 | 69 | 1015.7 |
| 20260508131618 | 15 | 265 | 3.2 | 8.0 | 0.00 | 0.08 | 0.00 | 69 | 1015.8 |
| 20260508124616 | 15 | 355 | 0.0 | 4.8 | 0.00 | 0.89 | 0.00 | 69 | 1015.8 |
| 20260508121622 | 15 | 247 | 4.8 | 12.9 | 0.00 | 0.89 | 0.00 | 69 | 1016.0 |
| 20260508114619 | 15 | 279 | 4.8 | 14.5 | 0.00 | 0.97 | 0.00 | 72 | 1015.9 |
| 20260508113118 | 15 | 242 | 6.4 | 11.3 | 0.00 | 0.97 | 0.00 | 71 | 1016.0 |
| 20260508110118 | 13 | 281 | 4.8 | 16.1 | 0.00 | 0.97 | 0.00 | 73 | 1016.3 |
| 20260508104615 | 13 | 244 | 4.8 | 14.5 | 0.00 | 0.99 | 0.00 | 73 | 1016.4 |
| 20260508103114 | 13 | 220 | 0.0 | 12.9 | 0.00 | 0.99 | 0.00 | 73 | 1016.3 |
| 20260508100125 | 13 | 265 | 0.0 | 11.3 | 0.00 | 0.99 | 0.00 | 76 | 1016.5 |
| 20260508094619 | 13 | 231 | 4.8 | 17.7 | 0.00 | 0.99 | 0.00 | 73 | 1016.6 |
| 20260508091620 | 13 | 276 | 3.2 | 12.9 | 0.00 | 0.99 | 0.00 | 71 | 1016.7 |
| 20260508084623 | 11 | 240 | 3.2 | 8.0 | 0.00 | 0.99 | 0.00 | 80 | 1016.7 |
| 20260508083124 | 11 | 205 | 1.6 | 11.3 | 0.00 | 0.99 | 0.00 | 83 | 1016.8 |
| 20260508081615 | 11 | 229 | 3.2 | 6.4 | 0.00 | 0.99 | 0.00 | 86 | 1016.7 |
| 20260508074618 | 10 | 234 | 4.8 | 11.3 | 0.00 | 0.99 | 0.00 | 86 | 1016.5 |
| 20260508073111 | 10 | 215 | 3.2 | 8.0 | 0.00 | 0.99 | 0.00 | 84 | 1016.5 |
| 20260508070120 | 9 | 226 | 3.2 | 6.4 | 0.00 | 0.99 | 0.00 | 93 | 1016.3 |
| 20260508063123 | 8 | 226 | 0.0 | 1.6 | 0.00 | 0.99 | 0.00 | 96 | 1016.1 |
| 20260508061624 | 8 | 226 | 0.0 | 1.6 | 0.00 | 0.99 | 0.00 | 96 | 1015.8 |
| 20260508060118 | 7 | 226 | 0.0 | 0.0 | 0.00 | 0.99 | 0.00 | 96 | 1015.6 |
| 20260508053118 | 6 | 226 | 0.0 | 0.0 | 0.00 | 0.99 | 0.00 | 96 | 1015.8 |
| 20260508051612 | 5 | 226 | 0.0 | 0.0 | 0.00 | 0.99 | 0.00 | 96 | 1015.7 |
| 20260508044621 | 5 | 226 | 0.0 | 0.0 | 0.00 | 0.99 | 0.00 | 96 | 1015.7 |
| 20260508041623 | 5 | 226 | 0.0 | 0.0 | 0.00 | 0.99 | 0.00 | 95 | 1015.5 |
| 20260508034620 | 6 | 226 | 0.0 | 0.0 | 0.00 | 0.99 | 0.00 | 96 | 1015.7 |
| 20260508031621 | 7 | 226 | 0.0 | 0.0 | 0.00 | 0.99 | 0.00 | 96 | 1015.7 |
| 20260508030111 | 7 | 226 | 0.0 | 0.0 | 0.00 | 0.99 | 0.00 | 96 | 1015.9 |
| 20260508023107 | 7 | 226 | 0.0 | 0.0 | 0.00 | 0.99 | 0.00 | 96 | 1016.1 |
| 20260508020117 | 7 | 226 | 0.0 | 0.0 | 0.00 | 0.99 | 0.00 | 96 | 1016.1 |
| 20260508014628 | 7 | 226 | 0.0 | 0.0 | 0.00 | 0.99 | 0.00 | 96 | 1016.2 |
| 20260508011616 | 7 | 226 | 0.0 | 0.0 | 0.00 | 0.99 | 0.00 | 95 | 1016.0 |
| 20260508004610 | 7 | 226 | 0.0 | 0.0 | 0.00 | 0.99 | 0.00 | 95 | 1016.0 |
| 20260508003109 | 7 | 226 | 0.0 | 0.0 | 0.00 | 0.99 | 0.00 | 95 | 1016.0 |
| 20260508000117 | 7 | 226 | 0.0 | 0.0 | 0.00 | 0.99 | 0.00 | 95 | 1015.8 |
| 20260507234613 | 7 | 226 | 0.0 | 0.0 | 0.00 | 0.99 | 0.00 | 95 | 1016.0 |
| 20260507231622 | 7 | 226 | 0.0 | 0.0 | 0.00 | 0.99 | 0.00 | 95 | 1016.2 |
| 20260507230114 | 7 | 226 | 0.0 | 0.0 | 0.00 | 0.99 | 0.00 | 95 | 1016.3 |
| 20260507223115 | 7 | 226 | 0.0 | 3.2 | 0.00 | 0.99 | 0.00 | 95 | 1016.1 |
| 20260507220145 | 8 | 226 | 0.0 | 0.0 | 0.00 | 0.99 | 0.00 | 94 | 1016.2 |
| 20260507213118 | 8 | 226 | 0.0 | 4.8 | 0.00 | 0.99 | 0.99 | 95 | 1016.2 |
| 20260507211612 | 8 | 226 | 0.0 | 4.8 | 0.00 | 0.99 | 0.99 | 94 | 1016.1 |
| 20260507204621 | 8 | 226 | 0.0 | 1.6 | 0.00 | 0.99 | 0.99 | 95 | 1016.1 |
| 20260507203119 | 8 | 226 | 0.0 | 0.0 | 0.00 | 0.99 | 0.99 | 94 | 1016.0 |
| 20260507201618 | 8 | 226 | 0.0 | 4.8 | 0.00 | 0.99 | 0.99 | 94 | 1015.9 |
| 20260507194636 | 8 | 226 | 0.0 | 3.2 | 0.00 | 1.02 | 0.99 | 94 | 1015.7 |
| 20260507191618 | 8 | 226 | 0.0 | 1.6 | 0.00 | 1.02 | 0.99 | 93 | 1015.2 |
| 20260507184624 | 9 | 226 | 0.0 | 1.6 | 0.00 | 1.04 | 0.99 | 93 | 1014.9 |
| 20260507181619 | 9 | 226 | 0.0 | 4.8 | 0.00 | 1.04 | 0.99 | 92 | 1014.4 |
| 20260507180110 | 10 | 226 | 0.0 | 1.6 | 0.00 | 1.04 | 0.99 | 92 | 1014.3 |
| 20260507173111 | 10 | 226 | 0.0 | 3.2 | 0.00 | 1.04 | 0.99 | 91 | 1013.8 |
| 20260507170118 | 11 | 226 | 0.0 | 3.2 | 0.00 | 1.04 | 0.99 | 90 | 1013.5 |
| 20260507164645 | 10 | 226 | 0.0 | 3.2 | 0.00 | 1.04 | 0.99 | 90 | 1013.7 |
| 20260507161619 | 12 | 226 | 1.6 | 6.4 | 0.00 | 1.04 | 0.99 | 86 | 1013.6 |
| 20260507160118 | 12 | 226 | 3.2 | 4.8 | 0.00 | 1.04 | 0.99 | 86 | 1013.5 |
| 20260507154611 | 13 | 226 | 1.6 | 4.8 | 0.00 | 1.04 | 0.99 | 80 | 1013.3 |
| 20260507151620 | 13 | 226 | 1.6 | 6.4 | 0.00 | 1.04 | 0.99 | 79 | 1013.3 |
| 20260507144620 | 12 | 252 | 3.2 | 6.4 | 0.00 | 1.22 | 0.99 | 86 | 1013.4 |
| 20260507141619 | 12 | 246 | 3.2 | 6.4 | 0.05 | 1.22 | 0.99 | 86 | 1013.4 |
| 20260507134623 | 11 | 232 | 1.6 | 6.4 | 0.10 | 1.42 | 0.97 | 94 | 1013.7 |